Time,TemperatureF,DewpointF,PressureIn,WindDirection,WindDirectionDegrees,WindSpeedMPH,WindSpeedGustMPH,Humidity,HourlyPrecipIn,Conditions,Clouds,dailyrainin,SoftwareType,DateUTC
2013-04-06 00:00:00,45.4,44.1,29.99,WNW,284,0.0,0.0,95,0.00,,,0.00,Wunderground v.1.15,2013-04-06 04:00:00,
2013-04-06 00:05:00,45.3,43.7,29.99,WNW,284,0.0,0.0,94,0.00,,,0.00,Wunderground v.1.15,2013-04-06 04:05:00,
2013-04-06 00:10:00,45.2,43.9,29.99,WNW,284,0.0,0.0,95,0.00,,,0.00,Wunderground v.1.15,2013-04-06 04:10:00,
2013-04-06 00:25:00,44.9,43.3,29.99,WNW,284,0.0,0.0,94,0.00,,,0.00,Wunderground v.1.15,2013-04-06 04:25:00,
2013-04-06 00:30:00,44.8,43.5,29.99,WNW,284,0.0,0.0,95,0.00,,,0.00,Wunderground v.1.15,2013-04-06 04:30:00,
2013-04-06 00:35:00,44.8,43.5,30.00,WNW,284,0.0,0.0,95,0.00,,,0.00,Wunderground v.1.15,2013-04-06 04:35:00,
2013-04-06 00:45:00,44.6,43.3,30.00,WNW,284,0.0,0.0,95,0.00,,,0.00,Wunderground v.1.15,2013-04-06 04:45:00,
2013-04-06 00:55:00,44.5,43.2,30.00,WNW,284,0.0,0.0,95,0.00,,,0.00,Wunderground v.1.15,2013-04-06 04:55:00,
2013-04-06 01:05:00,44.4,43.1,30.00,WNW,284,0.0,0.0,95,0.00,,,0.00,Wunderground v.1.15,2013-04-06 05:05:00,
2013-04-06 01:15:00,44.1,42.8,30.00,WNW,284,0.0,0.0,95,0.00,,,0.00,Wunderground v.1.15,2013-04-06 05:15:00,
2013-04-06 01:20:00,43.9,42.6,29.99,WNW,284,0.0,0.0,95,0.00,,,0.00,Wunderground v.1.15,2013-04-06 05:20:00,
2013-04-06 01:25:00,43.8,42.5,29.99,WNW,284,0.0,0.0,95,0.00,,,0.00,Wunderground v.1.15,2013-04-06 05:25:00,
2013-04-06 01:35:00,43.6,42.3,30.00,WNW,284,0.0,0.0,95,0.00,,,0.00,Wunderground v.1.15,2013-04-06 05:35:00,
2013-04-06 01:45:00,43.3,42.0,30.00,WNW,284,0.0,0.0,95,0.00,,,0.00,Wunderground v.1.15,2013-04-06 05:45:00,
2013-04-06 01:50:00,43.3,42.0,30.00,WNW,284,0.0,0.0,95,0.00,,,0.00,Wunderground v.1.15,2013-04-06 05:50:00,
2013-04-06 02:05:00,43.2,41.9,30.00,WNW,284,0.0,0.0,95,0.00,,,0.00,Wunderground v.1.15,2013-04-06 06:05:00,
2013-04-06 02:10:00,43.3,42.2,30.00,WNW,284,0.0,0.0,96,0.00,,,0.00,Wunderground v.1.15,2013-04-06 06:10:00,
2013-04-06 02:20:00,43.1,42.0,30.00,WNW,284,0.0,0.0,96,0.00,,,0.00,Wunderground v.1.15,2013-04-06 06:20:00,
2013-04-06 02:25:00,43.0,41.9,30.00,WNW,284,0.0,0.0,96,0.00,,,0.00,Wunderground v.1.15,2013-04-06 06:25:00,
2013-04-06 02:30:00,42.8,41.5,30.01,WNW,284,0.0,0.0,95,0.00,,,0.00,Wunderground v.1.15,2013-04-06 06:30:00,
2013-04-06 02:40:00,42.7,41.4,30.00,WNW,284,0.0,0.0,95,0.00,,,0.00,Wunderground v.1.15,2013-04-06 06:40:00,
2013-04-06 02:50:00,42.5,41.4,30.00,WNW,284,0.0,0.0,96,0.00,,,0.00,Wunderground v.1.15,2013-04-06 06:50:00,
2013-04-06 03:00:00,42.4,41.3,30.01,WNW,284,0.0,0.0,96,0.00,,,0.00,Wunderground v.1.15,2013-04-06 07:00:00,
2013-04-06 03:10:00,42.2,40.9,30.01,WNW,284,0.0,0.0,95,0.00,,,0.00,Wunderground v.1.15,2013-04-06 07:10:00,
2013-04-06 03:20:00,41.9,40.6,30.01,WNW,284,0.0,0.0,95,0.00,,,0.00,Wunderground v.1.15,2013-04-06 07:20:00,
2013-04-06 03:25:00,41.8,40.5,30.01,WNW,284,0.0,0.0,95,0.00,,,0.00,Wunderground v.1.15,2013-04-06 07:25:00,
2013-04-06 03:35:00,42.0,40.9,30.02,WNW,284,0.0,0.0,96,0.00,,,0.00,Wunderground v.1.15,2013-04-06 07:35:00,
2013-04-06 03:45:00,41.9,40.8,30.02,WNW,284,0.0,0.0,96,0.00,,,0.00,Wunderground v.1.15,2013-04-06 07:45:00,
2013-04-06 03:50:00,41.9,40.8,30.02,WNW,284,0.0,0.0,96,0.00,,,0.00,Wunderground v.1.15,2013-04-06 07:50:00,
2013-04-06 04:00:00,41.7,40.6,30.02,WNW,284,0.0,0.0,96,0.00,,,0.00,Wunderground v.1.15,2013-04-06 08:00:00,
2013-04-06 04:10:00,41.5,40.4,30.02,WNW,284,0.0,0.0,96,0.00,,,0.00,Wunderground v.1.15,2013-04-06 08:10:00,
2013-04-06 04:20:00,41.4,40.3,30.02,WNW,284,0.0,0.0,96,0.00,,,0.00,Wunderground v.1.15,2013-04-06 08:20:00,
2013-04-06 04:30:00,41.4,40.3,30.02,WNW,284,0.0,0.0,96,0.00,,,0.00,Wunderground v.1.15,2013-04-06 08:30:00,
2013-04-06 04:40:00,41.6,40.5,30.02,WNW,284,0.0,0.0,96,0.00,,,0.00,Wunderground v.1.15,2013-04-06 08:40:00,
2013-04-06 04:50:00,41.4,40.3,30.02,WNW,284,0.0,0.0,96,0.00,,,0.00,Wunderground v.1.15,2013-04-06 08:50:00,
2013-04-06 04:55:00,41.4,40.3,30.03,WNW,284,0.0,0.0,96,0.00,,,0.00,Wunderground v.1.15,2013-04-06 08:55:00,
2013-04-06 05:05:00,41.3,40.2,30.03,WNW,284,0.0,0.0,96,0.00,,,0.00,Wunderground v.1.15,2013-04-06 09:05:00,
2013-04-06 05:15:00,41.1,40.0,30.03,WNW,284,0.0,0.0,96,0.00,,,0.00,Wunderground v.1.15,2013-04-06 09:15:00,
2013-04-06 05:25:00,41.1,40.0,30.04,WNW,284,0.0,0.0,96,0.00,,,0.00,Wunderground v.1.15,2013-04-06 09:25:00,
2013-04-06 05:30:00,41.0,39.9,30.04,WNW,284,0.0,0.0,96,0.00,,,0.00,Wunderground v.1.15,2013-04-06 09:30:00,
2013-04-06 05:40:00,40.8,39.7,30.04,WNW,284,0.0,0.0,96,0.00,,,0.00,Wunderground v.1.15,2013-04-06 09:40:00,
2013-04-06 05:50:00,40.6,39.5,30.04,WNW,284,0.0,0.0,96,0.00,,,0.00,Wunderground v.1.15,2013-04-06 09:50:00,
2013-04-06 06:00:00,40.5,39.4,30.05,WNW,284,0.0,0.0,96,0.00,,,0.00,Wunderground v.1.15,2013-04-06 10:00:00,
2013-04-06 06:05:00,40.6,39.5,30.05,WNW,284,0.0,0.0,96,0.00,,,0.00,Wunderground v.1.15,2013-04-06 10:05:00,
2013-04-06 06:15:00,40.5,39.4,30.05,WNW,284,0.0,0.0,96,0.00,,,0.00,Wunderground v.1.15,2013-04-06 10:15:00,
2013-04-06 06:25:00,40.3,39.3,30.06,WNW,284,0.0,0.0,96,0.00,,,0.00,Wunderground v.1.15,2013-04-06 10:25:00,
2013-04-06 06:30:00,40.3,39.3,30.06,WNW,284,0.0,0.0,96,0.00,,,0.00,Wunderground v.1.15,2013-04-06 10:30:00,
2013-04-06 06:35:00,40.2,39.2,30.06,WNW,284,0.0,0.0,96,0.00,,,0.00,Wunderground v.1.15,2013-04-06 10:35:00,
2013-04-06 06:45:00,40.2,39.2,30.07,WNW,284,0.0,0.0,96,0.00,,,0.00,Wunderground v.1.15,2013-04-06 10:45:00,
2013-04-06 06:50:00,40.1,39.1,30.07,WNW,284,0.0,0.0,96,0.00,,,0.00,Wunderground v.1.15,2013-04-06 10:50:00,
2013-04-06 07:00:00,40.0,39.0,30.07,WNW,284,0.0,0.0,96,0.00,,,0.00,Wunderground v.1.15,2013-04-06 11:00:00,
2013-04-06 07:10:00,39.9,38.9,30.08,WNW,284,0.0,0.0,96,0.00,,,0.00,Wunderground v.1.15,2013-04-06 11:10:00,
2013-04-06 07:20:00,39.8,38.8,30.08,WNW,284,0.0,0.0,96,0.00,,,0.00,Wunderground v.1.15,2013-04-06 11:20:00,
2013-04-06 07:30:00,39.9,38.9,30.08,WNW,284,0.0,0.0,96,0.00,,,0.00,Wunderground v.1.15,2013-04-06 11:30:00,
2013-04-06 07:35:00,40.2,39.4,30.08,WNW,284,0.0,0.0,97,0.00,,,0.00,Wunderground v.1.15,2013-04-06 11:35:00,
2013-04-06 07:40:00,40.6,39.8,30.09,WNW,284,0.0,0.0,97,0.00,,,0.00,Wunderground v.1.15,2013-04-06 11:40:00,
2013-04-06 07:50:00,41.4,40.6,30.09,WNW,284,0.0,0.0,97,0.00,,,0.00,Wunderground v.1.15,2013-04-06 11:50:00,
2013-04-06 07:55:00,41.9,41.1,30.09,WNW,284,0.0,0.0,97,0.00,,,0.00,Wunderground v.1.15,2013-04-06 11:55:00,
2013-04-06 08:05:00,43.1,42.3,30.10,WNW,284,0.0,0.0,97,0.00,,,0.00,Wunderground v.1.15,2013-04-06 12:05:00,
2013-04-06 08:15:00,44.7,44.2,30.11,WNW,284,0.0,0.0,98,0.00,,,0.00,Wunderground v.1.15,2013-04-06 12:15:00,
2013-04-06 08:25:00,46.4,45.9,30.11,WNW,284,0.0,0.0,98,0.00,,,0.00,Wunderground v.1.15,2013-04-06 12:25:00,
2013-04-06 08:35:00,47.8,47.3,30.11,WNW,284,0.0,0.0,98,0.00,,,0.00,Wunderground v.1.15,2013-04-06 12:35:00,
2013-04-06 08:45:00,48.8,48.0,30.12,WNW,285,0.0,0.0,97,0.00,,,0.00,Wunderground v.1.15,2013-04-06 12:45:00,
2013-04-06 08:50:00,49.5,48.4,30.12,WNW,285,0.0,0.0,96,0.00,,,0.00,Wunderground v.1.15,2013-04-06 12:50:00,
2013-04-06 09:00:00,51.1,48.3,30.12,WNW,285,0.0,0.0,90,0.00,,,0.00,Wunderground v.1.15,2013-04-06 13:00:00,
2013-04-06 09:05:00,51.7,48.0,30.12,NW,313,0.0,1.0,87,0.00,,,0.00,Wunderground v.1.15,2013-04-06 13:05:00,
2013-04-06 09:15:00,52.8,47.8,30.12,NW,313,0.0,1.0,83,0.00,,,0.00,Wunderground v.1.15,2013-04-06 13:15:00,
2013-04-06 09:20:00,53.8,48.1,30.13,NW,313,0.0,0.0,81,0.00,,,0.00,Wunderground v.1.15,2013-04-06 13:20:00,
2013-04-06 09:30:00,55.5,47.7,30.13,NNE,28,0.0,1.0,75,0.00,,,0.00,Wunderground v.1.15,2013-04-06 13:30:00,
2013-04-06 09:40:00,57.1,47.8,30.13,NNE,31,1.0,1.0,71,0.00,,,0.00,Wunderground v.1.15,2013-04-06 13:40:00,
2013-04-06 09:45:00,57.9,48.2,30.13,NNE,31,1.0,1.0,70,0.00,,,0.00,Wunderground v.1.15,2013-04-06 13:45:00,
2013-04-06 09:55:00,58.5,47.6,30.13,North,10,1.0,1.0,67,0.00,,,0.00,Wunderground v.1.15,2013-04-06 13:55:00,
2013-04-06 10:00:00,58.7,47.4,30.13,NNE,14,1.0,1.0,66,0.00,,,0.00,Wunderground v.1.15,2013-04-06 14:00:00,
2013-04-06 10:10:00,59.4,47.6,30.13,NE,55,1.0,1.0,65,0.00,,,0.00,Wunderground v.1.15,2013-04-06 14:10:00,
2013-04-06 10:25:00,60.3,48.1,30.14,ENE,64,1.0,1.0,64,0.00,,,0.00,Wunderground v.1.15,2013-04-06 14:25:00,
2013-04-06 10:35:00,61.4,47.4,30.14,ENE,74,1.0,4.0,60,0.00,,,0.00,Wunderground v.1.15,2013-04-06 14:35:00,
2013-04-06 10:45:00,62.3,47.8,30.15,East,80,1.0,2.0,59,0.00,,,0.00,Wunderground v.1.15,2013-04-06 14:45:00,
2013-04-06 10:50:00,63.0,47.5,30.15,ENE,72,1.0,3.0,57,0.00,,,0.00,Wunderground v.1.15,2013-04-06 14:50:00,
2013-04-06 11:00:00,63.8,47.8,30.15,WNW,286,2.0,2.0,56,0.00,,,0.00,Wunderground v.1.15,2013-04-06 15:00:00,
2013-04-06 11:10:00,65.0,48.4,30.15,ENE,74,1.0,5.0,55,0.00,,,0.00,Wunderground v.1.15,2013-04-06 15:10:00,
2013-04-06 11:20:00,65.7,48.6,30.16,West,267,2.0,2.0,54,0.00,,,0.00,Wunderground v.1.15,2013-04-06 15:20:00,
2013-04-06 11:30:00,66.7,48.5,30.16,NNE,30,1.0,1.0,52,0.00,,,0.00,Wunderground v.1.15,2013-04-06 15:30:00,
2013-04-06 11:35:00,67.0,47.2,30.16,East,91,1.0,7.0,49,0.00,,,0.00,Wunderground v.1.15,2013-04-06 15:35:00,
2013-04-06 11:45:00,65.8,49.2,30.17,ESE,105,4.0,4.0,55,0.00,,,0.00,Wunderground v.1.15,2013-04-06 15:45:00,
2013-04-06 11:50:00,65.1,50.0,30.17,ENE,70,4.0,9.0,58,0.00,,,0.00,Wunderground v.1.15,2013-04-06 15:50:00,
2013-04-06 12:00:00,64.0,49.4,30.17,East,90,5.0,5.0,59,0.00,,,0.00,Wunderground v.1.15,2013-04-06 16:00:00,
2013-04-06 12:10:00,63.9,50.6,30.17,ENE,63,4.0,4.0,62,0.00,,,0.00,Wunderground v.1.15,2013-04-06 16:10:00,
2013-04-06 12:15:00,63.6,49.9,30.17,ENE,61,4.0,4.0,61,0.00,,,0.00,Wunderground v.1.15,2013-04-06 16:15:00,
2013-04-06 12:20:00,63.3,50.5,30.17,East,84,5.0,5.0,63,0.00,,,0.00,Wunderground v.1.15,2013-04-06 16:20:00,
2013-04-06 12:25:00,63.4,51.0,30.17,ENE,70,5.0,5.0,64,0.00,,,0.00,Wunderground v.1.15,2013-04-06 16:25:00,
2013-04-06 12:35:00,63.5,50.7,30.17,East,86,4.0,5.0,63,0.00,,,0.00,Wunderground v.1.15,2013-04-06 16:35:00,
2013-04-06 12:45:00,63.1,50.3,30.18,ENE,67,5.0,5.0,63,0.00,,,0.00,Wunderground v.1.15,2013-04-06 16:45:00,
2013-04-06 12:55:00,62.7,49.9,30.17,ENE,58,5.0,5.0,63,0.00,,,0.00,Wunderground v.1.15,2013-04-06 16:55:00,
2013-04-06 13:05:00,63.1,49.4,30.17,East,96,5.0,7.0,61,0.00,,,0.00,Wunderground v.1.15,2013-04-06 17:05:00,
2013-04-06 13:10:00,63.5,48.9,30.17,East,91,4.0,6.0,59,0.00,,,0.00,Wunderground v.1.15,2013-04-06 17:10:00,
2013-04-06 13:20:00,62.9,46.5,30.17,ENE,57,5.0,5.0,55,0.00,,,0.00,Wunderground v.1.15,2013-04-06 17:20:00,
2013-04-06 13:30:00,63.9,45.9,30.17,East,95,3.0,10.0,52,0.00,,,0.00,Wunderground v.1.15,2013-04-06 17:30:00,
2013-04-06 13:40:00,63.7,44.7,30.17,NE,34,4.0,8.0,50,0.00,,,0.00,Wunderground v.1.15,2013-04-06 17:40:00,
2013-04-06 13:50:00,63.1,44.7,30.17,East,89,6.0,6.0,51,0.00,,,0.00,Wunderground v.1.15,2013-04-06 17:50:00,
2013-04-06 14:00:00,63.8,43.7,30.17,NE,43,5.0,5.0,48,0.00,,,0.00,Wunderground v.1.15,2013-04-06 18:00:00,
2013-04-06 14:10:00,63.8,43.2,30.17,East,88,5.0,5.0,47,0.00,,,0.00,Wunderground v.1.15,2013-04-06 18:10:00,
2013-04-06 14:15:00,64.0,42.8,30.17,NE,51,4.0,5.0,46,0.00,,,0.00,Wunderground v.1.15,2013-04-06 18:15:00,
2013-04-06 14:25:00,63.2,41.5,30.17,ENE,71,6.0,6.0,45,0.00,,,0.00,Wunderground v.1.15,2013-04-06 18:25:00,
2013-04-06 14:35:00,63.1,41.4,30.17,SE,136,6.0,7.0,45,0.00,,,0.00,Wunderground v.1.15,2013-04-06 18:35:00,
2013-04-06 14:45:00,63.1,40.2,30.17,ENE,74,7.0,7.0,43,0.00,,,0.00,Wunderground v.1.15,2013-04-06 18:45:00,
2013-04-06 14:50:00,63.4,39.9,30.16,ENE,69,6.0,6.0,42,0.00,,,0.00,Wunderground v.1.15,2013-04-06 18:50:00,
2013-04-06 15:00:00,62.9,41.2,30.17,ENE,65,6.0,6.0,45,0.00,,,0.00,Wunderground v.1.15,2013-04-06 19:00:00,
2013-04-06 15:10:00,62.1,41.1,30.16,East,94,7.0,7.0,46,0.00,,,0.00,Wunderground v.1.15,2013-04-06 19:10:00,
2013-04-06 15:20:00,63.7,40.2,30.16,ESE,112,4.0,4.0,42,0.00,,,0.00,Wunderground v.1.15,2013-04-06 19:20:00,
2013-04-06 15:25:00,63.4,41.1,30.16,ESE,117,6.0,6.0,44,0.00,,,0.00,Wunderground v.1.15,2013-04-06 19:25:00,
2013-04-06 15:35:00,62.7,41.6,30.16,ESE,115,5.0,6.0,46,0.00,,,0.00,Wunderground v.1.15,2013-04-06 19:35:00,
2013-04-06 15:50:00,62.9,41.2,30.16,NNE,23,5.0,6.0,45,0.00,,,0.00,Wunderground v.1.15,2013-04-06 19:50:00,
2013-04-06 16:00:00,62.0,42.1,30.16,East,91,6.0,6.0,48,0.00,,,0.00,Wunderground v.1.15,2013-04-06 20:00:00,
2013-04-06 16:10:00,62.1,41.6,30.16,ENE,75,5.0,5.0,47,0.00,,,0.00,Wunderground v.1.15,2013-04-06 20:10:00,
2013-04-06 16:20:00,62.0,42.1,30.15,SE,140,5.0,5.0,48,0.00,,,0.00,Wunderground v.1.15,2013-04-06 20:20:00,
2013-04-06 16:30:00,62.1,42.2,30.15,East,82,4.0,7.0,48,0.00,,,0.00,Wunderground v.1.15,2013-04-06 20:30:00,
2013-04-06 16:35:00,61.9,42.5,30.15,ENE,76,4.0,7.0,49,0.00,,,0.00,Wunderground v.1.15,2013-04-06 20:35:00,
2013-04-06 16:45:00,61.4,42.1,30.15,East,84,5.0,7.0,49,0.00,,,0.00,Wunderground v.1.15,2013-04-06 20:45:00,
2013-04-06 16:55:00,61.1,42.3,30.15,East,96,5.0,6.0,50,0.00,,,0.00,Wunderground v.1.15,2013-04-06 20:55:00,
2013-04-06 17:00:00,60.8,41.5,30.15,ENE,59,5.0,8.0,49,0.00,,,0.00,Wunderground v.1.15,2013-04-06 21:00:00,
2013-04-06 17:10:00,61.0,41.7,30.16,SE,125,5.0,6.0,49,0.00,,,0.00,Wunderground v.1.15,2013-04-06 21:10:00,
2013-04-06 17:20:00,60.6,41.8,30.16,East,94,5.0,6.0,50,0.00,,,0.00,Wunderground v.1.15,2013-04-06 21:20:00,
2013-04-06 17:25:00,60.6,42.4,30.16,East,86,5.0,6.0,51,0.00,,,0.00,Wunderground v.1.15,2013-04-06 21:25:00,
2013-04-06 17:35:00,60.4,42.7,30.16,NE,47,4.0,7.0,52,0.00,,,0.00,Wunderground v.1.15,2013-04-06 21:35:00,
2013-04-06 17:45:00,60.2,43.0,30.16,East,85,4.0,7.0,53,0.00,,,0.00,Wunderground v.1.15,2013-04-06 21:45:00,
2013-04-06 17:50:00,59.6,43.9,30.16,East,94,5.0,5.0,56,0.00,,,0.00,Wunderground v.1.15,2013-04-06 21:50:00,
2013-04-06 18:00:00,59.5,44.2,30.16,ENE,69,4.0,4.0,57,0.00,,,0.00,Wunderground v.1.15,2013-04-06 22:00:00,
2013-04-06 18:10:00,59.4,45.5,30.16,SE,136,4.0,5.0,60,0.00,,,0.00,Wunderground v.1.15,2013-04-06 22:10:00,
2013-04-06 18:20:00,59.4,43.2,30.17,East,101,3.0,3.0,55,0.00,,,0.00,Wunderground v.1.15,2013-04-06 22:20:00,
2013-04-06 18:30:00,58.8,44.5,30.17,East,80,4.0,4.0,59,0.00,,,0.00,Wunderground v.1.15,2013-04-06 22:30:00,
2013-04-06 18:40:00,57.7,43.9,30.17,ENE,78,4.0,7.0,60,0.00,,,0.00,Wunderground v.1.15,2013-04-06 22:40:00,
2013-04-06 18:50:00,57.0,45.3,30.18,ENE,62,4.0,4.0,65,0.00,,,0.00,Wunderground v.1.15,2013-04-06 22:50:00,
2013-04-06 18:55:00,56.7,45.5,30.17,ENE,76,3.0,4.0,66,0.00,,,0.00,Wunderground v.1.15,2013-04-06 22:55:00,
2013-04-06 19:00:00,56.4,46.0,30.18,ENE,69,3.0,5.0,68,0.00,,,0.00,Wunderground v.1.15,2013-04-06 23:00:00,
2013-04-06 19:10:00,56.2,46.9,30.18,East,94,3.0,3.0,71,0.00,,,0.00,Wunderground v.1.15,2013-04-06 23:10:00,
2013-04-06 19:15:00,56.0,47.1,30.18,ENE,69,2.0,3.0,72,0.00,,,0.00,Wunderground v.1.15,2013-04-06 23:15:00,
2013-04-06 19:25:00,55.8,47.6,30.18,ENE,78,2.0,4.0,74,0.00,,,0.00,Wunderground v.1.15,2013-04-06 23:25:00,
2013-04-06 19:30:00,55.5,47.3,30.18,NE,55,2.0,3.0,74,0.00,,,0.00,Wunderground v.1.15,2013-04-06 23:30:00,
2013-04-06 19:40:00,54.9,47.1,30.19,East,86,2.0,2.0,75,0.00,,,0.00,Wunderground v.1.15,2013-04-06 23:40:00,
2013-04-06 19:45:00,54.7,46.6,30.19,ENE,66,2.0,2.0,74,0.00,,,0.00,Wunderground v.1.15,2013-04-06 23:45:00,
2013-04-06 20:00:00,54.1,45.6,30.19,East,96,3.0,3.0,73,0.00,,,0.00,Wunderground v.1.15,2013-04-07 00:00:00,
2013-04-06 20:10:00,53.8,45.3,30.19,ENE,71,3.0,3.0,73,0.00,,,0.00,Wunderground v.1.15,2013-04-07 00:10:00,
2013-04-06 20:20:00,53.6,45.2,30.19,ENE,72,2.0,2.0,73,0.00,,,0.00,Wunderground v.1.15,2013-04-07 00:20:00,
2013-04-06 20:30:00,53.5,45.1,30.20,East,84,3.0,5.0,73,0.00,,,0.00,Wunderground v.1.15,2013-04-07 00:30:00,
2013-04-06 20:40:00,53.6,45.5,30.20,East,83,4.0,4.0,74,0.00,,,0.00,Wunderground v.1.15,2013-04-07 00:40:00,
2013-04-06 20:50:00,53.4,46.0,30.21,ENE,71,3.0,3.0,76,0.00,,,0.00,Wunderground v.1.15,2013-04-07 00:50:00,
2013-04-06 20:55:00,53.3,46.3,30.21,ENE,70,3.0,3.0,77,0.00,,,0.00,Wunderground v.1.15,2013-04-07 00:55:00,
2013-04-06 21:05:00,53.2,46.2,30.20,ENE,68,3.0,5.0,77,0.00,,,0.00,Wunderground v.1.15,2013-04-07 01:05:00,
2013-04-06 21:10:00,53.2,46.2,30.20,ENE,78,3.0,3.0,77,0.00,,,0.00,Wunderground v.1.15,2013-04-07 01:10:00,
2013-04-06 21:20:00,53.2,45.8,30.21,ESE,114,4.0,4.0,76,0.00,,,0.00,Wunderground v.1.15,2013-04-07 01:20:00,
2013-04-06 21:30:00,53.3,46.3,30.22,NE,52,3.0,4.0,77,0.00,,,0.00,Wunderground v.1.15,2013-04-07 01:30:00,
2013-04-06 21:35:00,53.2,46.5,30.22,ESE,114,3.0,4.0,78,0.00,,,0.00,Wunderground v.1.15,2013-04-07 01:35:00,
2013-04-06 21:45:00,53.0,46.7,30.22,ENE,74,3.0,4.0,79,0.00,,,0.00,Wunderground v.1.15,2013-04-07 01:45:00,
2013-04-06 21:50:00,52.9,46.6,30.22,ENE,72,3.0,3.0,79,0.00,,,0.00,Wunderground v.1.15,2013-04-07 01:50:00,
2013-04-06 22:00:00,52.7,46.7,30.23,ENE,69,2.0,2.0,80,0.00,,,0.00,Wunderground v.1.15,2013-04-07 02:00:00,
2013-04-06 22:10:00,52.6,46.6,30.23,ENE,59,3.0,3.0,80,0.00,,,0.00,Wunderground v.1.15,2013-04-07 02:10:00,
2013-04-06 22:20:00,52.4,46.4,30.23,ENE,76,2.0,2.0,80,0.00,,,0.00,Wunderground v.1.15,2013-04-07 02:20:00,
2013-04-06 22:30:00,52.3,46.3,30.23,ENE,76,3.0,3.0,80,0.00,,,0.00,Wunderground v.1.15,2013-04-07 02:30:00,
2013-04-06 22:40:00,52.3,46.3,30.23,ENE,72,2.0,2.0,80,0.00,,,0.00,Wunderground v.1.15,2013-04-07 02:40:00,
2013-04-06 22:45:00,52.3,46.6,30.23,ENE,71,2.0,3.0,81,0.00,,,0.00,Wunderground v.1.15,2013-04-07 02:45:00,
2013-04-06 22:55:00,52.1,46.4,30.23,ENE,77,2.0,2.0,81,0.00,,,0.00,Wunderground v.1.15,2013-04-07 02:55:00,
2013-04-06 23:05:00,52.1,46.8,30.23,ENE,61,3.0,3.0,82,0.00,,,0.00,Wunderground v.1.15,2013-04-07 03:05:00,
2013-04-06 23:15:00,52.0,47.3,30.23,ENE,75,3.0,5.0,84,0.00,,,0.00,Wunderground v.1.15,2013-04-07 03:15:00,
2013-04-06 23:25:00,51.9,47.5,30.22,East,97,3.0,3.0,85,0.00,,,0.00,Wunderground v.1.15,2013-04-07 03:25:00,
2013-04-06 23:35:00,51.9,47.8,30.22,ENE,77,3.0,5.0,86,0.00,,,0.00,Wunderground v.1.15,2013-04-07 03:35:00,
2013-04-06 23:45:00,51.8,48.1,30.22,ENE,75,2.0,3.0,87,0.00,,,0.00,Wunderground v.1.15,2013-04-07 03:45:00,
2013-04-06 23:55:00,51.8,48.1,30.22,ENE,66,3.0,3.0,87,0.00,,,0.00,Wunderground v.1.15,2013-04-07 03:55:00,